Погода в Малом Луговом

Россия / Калининградская область     54°39′34″N   20°38′36″E
темп.,
°C
ветер,
м/с
пор.,
м/с
влажн.,
%
обл.,
%
осадки,
мм/ч
давл.,
гПа
погр.,
м
16 июня, ср
ср1623:00+9зсз22925 0.0 101923
02:00+9зюз229195 0.0 102011
05:00+10юз229148 0.0 101914
08:00+15юз22755 0.0 1020353
11:00+19зюз115724 0.0 10211305
14:00+21ссз22568 0.0 10201446
17:00+18с32670 0.0 1020619
20:00+15ссв23815 0.0 102150
17 июня, чт
чт1723:00+11всв22865 0.0 102210
02:00+10вюв33900 0.0 102230
05:00+10юв34920 0.0 102265
08:00+17юв34745 0.0 1023304
11:00+21юв45625 0.0 1023867
14:00+23ююв56565 0.0 10221227
17:00+24юв45623 0.0 10211163
20:00+20вюв37795 0.0 1022139
18 июня, пт
пт1823:00+16ююв49862 0.0 1022123
02:00+14ююв47890 0.0 102293
05:00+14ююв38915 0.0 1022140
08:00+20ююв47760 0.0 1022344
11:00+24ю56645 0.0 10211164
14:00+27ююв57575 0.0 10201684
17:00+27юв47640 0.0 10191456
20:00+23юв4108147 0.1 1019241
19 июня, сб
сб1923:00+20ююв412815 0.0 1020279
02:00+17ююв411900 0.0 1020199
05:00+17ююв39915 0.0 1019174
08:00+22ююв58785 0.0 1019381
11:00+25ююв67654 0.0 10191005
14:00+28ююв67560 0.0 10181614
17:00+28юв57630 0.0 10161228
20:00+24юв49825 0.1 1016221
20 июня, вс
вс2023:00+22ююв498435 0.1 1016214
02:00+19ююв310935 0.1 1016186
05:00+19ююв411924 0.0 1016245
08:00+23ю597616 0.0 1016428
11:00+26ююв676172 0.0 10161023
14:00+28ююв5555100 0.0 10161513
17:00+28ююв3563100 0.0 10151392
20:00+24вюв488058 0.0 1014209